Year,Month,Day,Hour,Minute,Value (Times are PST for temperature in C)
2014,05,23,00,00,15.30
2014,05,23,00,01,15.30
2014,05,23,00,02,15.30
2014,05,23,00,03,15.30
2014,05,23,00,04,15.30
2014,05,23,00,05,15.30
2014,05,23,00,06,15.30
2014,05,23,00,07,15.30
2014,05,23,00,08,15.30
2014,05,23,00,09,15.30
2014,05,23,00,10,15.30
2014,05,23,00,11,15.30
2014,05,23,00,12,15.30
2014,05,23,00,13,15.30
2014,05,23,00,14,15.30
2014,05,23,00,15,15.20
2014,05,23,00,16,15.20
2014,05,23,00,17,15.20
2014,05,23,00,18,15.20
2014,05,23,00,19,15.20
2014,05,23,00,20,15.20
2014,05,23,00,21,15.20
2014,05,23,00,22,15.20
2014,05,23,00,23,15.20
2014,05,23,00,24,15.20
2014,05,23,00,25,15.20
2014,05,23,00,26,15.20
2014,05,23,00,27,15.10
2014,05,23,00,28,15.10
2014,05,23,00,29,15.10
2014,05,23,00,30,15.10
2014,05,23,00,31,15.10
2014,05,23,00,32,15.10
2014,05,23,00,33,15.10
2014,05,23,00,34,15.10
2014,05,23,00,35,15.10
2014,05,23,00,36,15.00
2014,05,23,00,37,15.00
2014,05,23,00,38,15.00
2014,05,23,00,39,15.00
2014,05,23,00,40,15.00
2014,05,23,00,41,15.00
2014,05,23,00,42,15.00
2014,05,23,00,43,15.00
2014,05,23,00,44,15.00
2014,05,23,00,45,15.00
2014,05,23,00,46,15.00
2014,05,23,00,47,15.00
2014,05,23,00,48,15.00
2014,05,23,00,49,15.00
2014,05,23,00,50,15.00
2014,05,23,00,51,15.00
2014,05,23,00,52,15.00
2014,05,23,00,53,15.00
2014,05,23,00,54,15.00
2014,05,23,00,55,15.00
2014,05,23,00,56,15.00
2014,05,23,00,57,15.00
2014,05,23,00,58,15.00
2014,05,23,00,59,15.00
2014,05,23,01,00,15.00
2014,05,23,01,01,15.00
2014,05,23,01,02,15.00
2014,05,23,01,03,15.00
2014,05,23,01,04,15.00
2014,05,23,01,05,15.00
2014,05,23,01,06,15.00
2014,05,23,01,07,15.00
2014,05,23,01,08,15.00
2014,05,23,01,09,15.00
2014,05,23,01,10,15.00
2014,05,23,01,11,15.00
2014,05,23,01,12,15.00
2014,05,23,01,13,15.00
2014,05,23,01,14,15.00
2014,05,23,01,15,15.00
2014,05,23,01,16,15.00
2014,05,23,01,17,15.00
2014,05,23,01,18,15.00
2014,05,23,01,19,15.00
2014,05,23,01,20,15.00
2014,05,23,01,21,15.00
2014,05,23,01,22,15.00
2014,05,23,01,23,15.00
2014,05,23,01,24,15.00
2014,05,23,01,25,15.00
2014,05,23,01,26,15.00
2014,05,23,01,27,15.00
2014,05,23,01,28,15.00
2014,05,23,01,29,15.00
2014,05,23,01,30,15.00
2014,05,23,01,31,15.00
2014,05,23,01,32,15.00
2014,05,23,01,33,15.00
2014,05,23,01,34,15.00
2014,05,23,01,35,15.00
2014,05,23,01,36,15.00
2014,05,23,01,37,15.00
2014,05,23,01,38,15.00
2014,05,23,01,39,15.00
2014,05,23,01,40,15.00
2014,05,23,01,41,15.00
2014,05,23,01,42,15.00
2014,05,23,01,43,15.00
2014,05,23,01,44,15.00
2014,05,23,01,45,15.00
2014,05,23,01,46,15.00
2014,05,23,01,47,15.00
2014,05,23,01,48,15.00
2014,05,23,01,49,15.00
2014,05,23,01,50,15.00
2014,05,23,01,51,15.00
2014,05,23,01,52,15.00
2014,05,23,01,53,15.00
2014,05,23,01,54,15.00
2014,05,23,01,55,15.00
2014,05,23,01,56,15.00
2014,05,23,01,57,15.00
2014,05,23,01,58,15.00
2014,05,23,01,59,15.00
2014,05,23,02,00,15.00
2014,05,23,02,01,15.00
2014,05,23,02,02,15.00
2014,05,23,02,03,15.00
2014,05,23,02,04,15.00
2014,05,23,02,05,15.00
2014,05,23,02,06,15.00
2014,05,23,02,07,15.00
2014,05,23,02,08,15.00
2014,05,23,02,09,15.00
2014,05,23,02,10,15.00
2014,05,23,02,11,14.90
2014,05,23,02,12,14.90
2014,05,23,02,13,14.90
2014,05,23,02,14,14.90
2014,05,23,02,15,14.90
2014,05,23,02,16,14.90
2014,05,23,02,17,14.90
2014,05,23,02,18,14.90
2014,05,23,02,19,14.80
2014,05,23,02,20,14.80
2014,05,23,02,21,14.80
2014,05,23,02,22,14.80
2014,05,23,02,23,14.80
2014,05,23,02,24,14.80
2014,05,23,02,25,14.80
2014,05,23,02,26,14.80
2014,05,23,02,27,14.80
2014,05,23,02,28,14.80
2014,05,23,02,29,14.80
2014,05,23,02,30,14.80
2014,05,23,02,31,14.80
2014,05,23,02,32,14.80
2014,05,23,02,33,14.80
2014,05,23,02,34,14.70
2014,05,23,02,35,14.70
2014,05,23,02,36,14.70
2014,05,23,02,37,14.70
2014,05,23,02,38,14.70
2014,05,23,02,39,14.70
2014,05,23,02,40,14.70
2014,05,23,02,41,14.70
2014,05,23,02,42,14.70
2014,05,23,02,43,14.70
2014,05,23,02,44,14.70
2014,05,23,02,45,14.70
2014,05,23,02,46,14.70
2014,05,23,02,47,14.60
2014,05,23,02,48,14.60
2014,05,23,02,49,14.60
2014,05,23,02,50,14.60
2014,05,23,02,51,14.60
2014,05,23,02,52,14.60
2014,05,23,02,53,14.60
2014,05,23,02,54,14.60
2014,05,23,02,55,14.60
2014,05,23,02,56,14.60
2014,05,23,02,57,14.60
2014,05,23,02,58,14.60
2014,05,23,02,59,14.60
2014,05,23,03,00,14.60
2014,05,23,03,01,14.60
2014,05,23,03,02,14.60
2014,05,23,03,03,14.60
2014,05,23,03,04,14.60
2014,05,23,03,05,14.60
2014,05,23,03,06,14.60
2014,05,23,03,07,14.60
2014,05,23,03,08,14.60
2014,05,23,03,09,14.60
2014,05,23,03,10,14.60
2014,05,23,03,11,14.60
2014,05,23,03,12,14.60
2014,05,23,03,13,14.60
2014,05,23,03,14,14.60
2014,05,23,03,15,14.60
2014,05,23,03,16,14.60
2014,05,23,03,17,14.60
2014,05,23,03,18,14.60
2014,05,23,03,19,14.60
2014,05,23,03,20,14.60
2014,05,23,03,21,14.60
2014,05,23,03,22,14.60
2014,05,23,03,23,14.60
2014,05,23,03,24,14.60
2014,05,23,03,25,14.60
2014,05,23,03,26,14.60
2014,05,23,03,27,14.60
2014,05,23,03,28,14.60
2014,05,23,03,29,14.60
2014,05,23,03,30,14.60
2014,05,23,03,31,14.60
2014,05,23,03,32,14.60
2014,05,23,03,33,14.60
2014,05,23,03,34,14.60
2014,05,23,03,35,14.60
2014,05,23,03,36,14.60
2014,05,23,03,37,14.60
2014,05,23,03,38,14.60
2014,05,23,03,39,14.60
2014,05,23,03,40,14.60
2014,05,23,03,41,14.60
2014,05,23,03,42,14.60
2014,05,23,03,43,14.60
2014,05,23,03,44,14.60
2014,05,23,03,45,14.60
2014,05,23,03,46,14.60
2014,05,23,03,47,14.60
2014,05,23,03,48,14.60
2014,05,23,03,49,14.60
2014,05,23,03,50,14.60
2014,05,23,03,51,14.60
2014,05,23,03,52,14.60
2014,05,23,03,53,14.60
2014,05,23,03,54,14.50
2014,05,23,03,55,14.60
2014,05,23,03,56,14.50
2014,05,23,03,57,14.50
2014,05,23,03,58,14.50
2014,05,23,03,59,14.50
2014,05,23,04,00,14.50
2014,05,23,04,01,14.50
2014,05,23,04,02,14.50
2014,05,23,04,03,14.50
2014,05,23,04,04,14.50
2014,05,23,04,05,14.50
2014,05,23,04,06,14.50
2014,05,23,04,07,14.50
2014,05,23,04,08,14.50
2014,05,23,04,09,14.50
2014,05,23,04,10,14.50
2014,05,23,04,11,14.50
2014,05,23,04,12,14.50
2014,05,23,04,13,14.50
2014,05,23,04,14,14.50
2014,05,23,04,15,14.50
2014,05,23,04,16,14.50
2014,05,23,04,17,14.50
2014,05,23,04,18,14.50
2014,05,23,04,19,14.50
2014,05,23,04,20,14.50
2014,05,23,04,21,14.50
2014,05,23,04,22,14.50
2014,05,23,04,23,14.50
2014,05,23,04,24,14.50
2014,05,23,04,25,14.50
2014,05,23,04,26,14.50
2014,05,23,04,27,14.50
2014,05,23,04,28,14.50
2014,05,23,04,29,14.50
2014,05,23,04,30,14.50
2014,05,23,04,31,14.50
2014,05,23,04,32,14.50
2014,05,23,04,33,14.50
2014,05,23,04,34,14.50
2014,05,23,04,35,14.50
2014,05,23,04,36,14.50
2014,05,23,04,37,14.50
2014,05,23,04,38,14.50
2014,05,23,04,39,14.50
2014,05,23,04,40,14.60
2014,05,23,04,41,14.60
2014,05,23,04,42,14.60
2014,05,23,04,43,14.60
2014,05,23,04,44,14.60
2014,05,23,04,45,14.60
2014,05,23,04,46,14.60
2014,05,23,04,47,14.60
2014,05,23,04,48,14.60
2014,05,23,04,49,14.60
2014,05,23,04,50,14.60
2014,05,23,04,51,14.60
2014,05,23,04,52,14.60
2014,05,23,04,53,14.60
2014,05,23,04,54,14.60
2014,05,23,04,55,14.60
2014,05,23,04,56,14.60
2014,05,23,04,57,14.60
2014,05,23,04,58,14.60
2014,05,23,04,59,14.60
2014,05,23,05,00,14.60
2014,05,23,05,01,14.60
2014,05,23,05,02,14.60
2014,05,23,05,03,14.70
2014,05,23,05,04,14.70
2014,05,23,05,05,14.70
2014,05,23,05,06,14.70
2014,05,23,05,07,14.70
2014,05,23,05,08,14.70
2014,05,23,05,09,14.70
2014,05,23,05,10,14.70
2014,05,23,05,11,14.70
2014,05,23,05,12,14.60
2014,05,23,05,13,14.60
2014,05,23,05,14,14.60
2014,05,23,05,15,14.60
2014,05,23,05,16,14.60
2014,05,23,05,17,14.60
2014,05,23,05,18,14.50
2014,05,23,05,19,14.50
2014,05,23,05,20,14.40
2014,05,23,05,21,14.40
2014,05,23,05,22,14.30
2014,05,23,05,23,14.20
2014,05,23,05,24,14.20
2014,05,23,05,25,14.20
2014,05,23,05,26,14.10
2014,05,23,05,27,14.10
2014,05,23,05,28,14.10
2014,05,23,05,29,14.10
2014,05,23,05,30,14.10
2014,05,23,05,31,14.10
2014,05,23,05,32,14.10
2014,05,23,05,33,14.10
2014,05,23,05,34,14.00
2014,05,23,05,35,14.00
2014,05,23,05,36,14.00
2014,05,23,05,37,14.00
2014,05,23,05,38,13.90
2014,05,23,05,39,13.90
2014,05,23,05,40,13.90
2014,05,23,05,41,13.90
2014,05,23,05,42,13.90
2014,05,23,05,43,13.90
2014,05,23,05,44,13.90
2014,05,23,05,45,13.90
2014,05,23,05,46,13.80
2014,05,23,05,47,13.80
2014,05,23,05,48,13.80
2014,05,23,05,49,13.80
2014,05,23,05,50,13.80
2014,05,23,05,51,13.80
2014,05,23,05,52,13.70
2014,05,23,05,53,13.70
2014,05,23,05,54,13.70
2014,05,23,05,55,13.70
2014,05,23,05,56,13.70
2014,05,23,05,57,13.70
2014,05,23,05,58,13.70
2014,05,23,05,59,13.70
2014,05,23,06,00,13.70
2014,05,23,06,01,13.70
2014,05,23,06,02,13.70
2014,05,23,06,03,13.70
2014,05,23,06,04,13.70
2014,05,23,06,05,13.60
2014,05,23,06,06,13.50
2014,05,23,06,07,13.40
2014,05,23,06,08,13.30
2014,05,23,06,09,13.20
2014,05,23,06,10,13.00
2014,05,23,06,11,12.90
2014,05,23,06,12,12.90
2014,05,23,06,13,12.80
2014,05,23,06,14,12.80
2014,05,23,06,15,12.70
2014,05,23,06,16,12.70
2014,05,23,06,17,12.70
2014,05,23,06,18,12.70
2014,05,23,06,19,12.70
2014,05,23,06,20,12.70
2014,05,23,06,21,12.70
2014,05,23,06,22,12.60
2014,05,23,06,23,12.60
2014,05,23,06,24,12.50
2014,05,23,06,25,12.50
2014,05,23,06,26,12.40
2014,05,23,06,27,12.40
2014,05,23,06,28,12.40
2014,05,23,06,29,12.40
2014,05,23,06,30,12.30
2014,05,23,06,31,12.30
2014,05,23,06,32,12.30
2014,05,23,06,33,12.30
2014,05,23,06,34,12.30
2014,05,23,06,35,12.30
2014,05,23,06,36,12.30
2014,05,23,06,37,12.30
2014,05,23,06,38,12.30
2014,05,23,06,39,12.20
2014,05,23,06,40,12.20
2014,05,23,06,41,12.20
2014,05,23,06,42,12.10
2014,05,23,06,43,12.10
2014,05,23,06,44,12.10
2014,05,23,06,45,12.00
2014,05,23,06,46,11.90
2014,05,23,06,47,11.90
2014,05,23,06,48,11.90
2014,05,23,06,49,11.90
2014,05,23,06,50,11.90
2014,05,23,06,51,11.90
2014,05,23,06,52,11.90
2014,05,23,06,53,11.90
2014,05,23,06,54,11.90
2014,05,23,06,55,11.90
2014,05,23,06,56,11.90
2014,05,23,06,57,11.90
2014,05,23,06,58,11.90
2014,05,23,06,59,11.90
2014,05,23,07,00,11.90
2014,05,23,07,01,11.90
2014,05,23,07,02,11.90
2014,05,23,07,03,11.90
2014,05,23,07,04,11.90
2014,05,23,07,05,11.90
2014,05,23,07,06,11.90
2014,05,23,07,07,11.90
2014,05,23,07,08,11.90
2014,05,23,07,09,11.90
2014,05,23,07,10,11.90
2014,05,23,07,11,11.90
2014,05,23,07,12,11.90
2014,05,23,07,13,11.80
2014,05,23,07,14,11.80
2014,05,23,07,15,11.80
2014,05,23,07,16,11.80
2014,05,23,07,17,11.80
2014,05,23,07,18,11.80
2014,05,23,07,19,11.80
2014,05,23,07,20,11.80
2014,05,23,07,21,11.80
2014,05,23,07,22,11.80
2014,05,23,07,23,11.80
2014,05,23,07,24,11.80
2014,05,23,07,25,11.80
2014,05,23,07,26,11.80
2014,05,23,07,27,11.80
2014,05,23,07,28,11.80
2014,05,23,07,29,11.80
2014,05,23,07,30,11.80
2014,05,23,07,31,11.80
2014,05,23,07,32,11.80
2014,05,23,07,33,11.80
2014,05,23,07,34,11.80
2014,05,23,07,35,11.80
2014,05,23,07,36,11.80
2014,05,23,07,37,11.80
2014,05,23,07,38,11.80
2014,05,23,07,39,11.90
2014,05,23,07,40,11.90
2014,05,23,07,41,11.90
2014,05,23,07,42,11.90
2014,05,23,07,43,11.80
2014,05,23,07,44,11.80
2014,05,23,07,45,11.80
2014,05,23,07,46,11.80
2014,05,23,07,47,11.80
2014,05,23,07,48,11.80
2014,05,23,07,49,11.80
2014,05,23,07,50,11.80
2014,05,23,07,51,11.80
2014,05,23,07,52,11.80
2014,05,23,07,53,11.80
2014,05,23,07,54,11.80
2014,05,23,07,55,11.80
2014,05,23,07,56,11.80
2014,05,23,07,57,11.80
2014,05,23,07,58,11.80
2014,05,23,07,59,11.80
2014,05,23,08,00,11.80
2014,05,23,08,01,11.80
2014,05,23,08,02,11.80
2014,05,23,08,03,11.80
2014,05,23,08,04,11.90
2014,05,23,08,05,11.90
2014,05,23,08,06,11.90
2014,05,23,08,07,11.90
2014,05,23,08,08,11.90
2014,05,23,08,09,11.90
2014,05,23,08,10,11.90
2014,05,23,08,11,11.90
2014,05,23,08,12,11.90
2014,05,23,08,13,11.90
2014,05,23,08,14,11.90
2014,05,23,08,15,12.00
2014,05,23,08,16,12.00
2014,05,23,08,17,12.00
2014,05,23,08,18,12.00
2014,05,23,08,19,12.00
2014,05,23,08,20,12.10
2014,05,23,08,21,12.10
2014,05,23,08,22,12.10
2014,05,23,08,23,12.10
2014,05,23,08,24,12.10
2014,05,23,08,25,12.10
2014,05,23,08,26,12.10
2014,05,23,08,27,12.10
2014,05,23,08,28,12.10
2014,05,23,08,29,12.10
2014,05,23,08,30,12.20
2014,05,23,08,31,12.20
2014,05,23,08,32,12.20
2014,05,23,08,33,12.20
2014,05,23,08,34,12.20
2014,05,23,08,35,12.20
2014,05,23,08,36,12.20
2014,05,23,08,37,12.20
2014,05,23,08,38,12.20
2014,05,23,08,39,12.20
2014,05,23,08,40,12.20
2014,05,23,08,41,12.30
2014,05,23,08,42,12.30
2014,05,23,08,43,12.30
2014,05,23,08,44,12.30
2014,05,23,08,45,12.30
2014,05,23,08,46,12.30
2014,05,23,08,47,12.30
2014,05,23,08,48,12.30
2014,05,23,08,49,12.30
2014,05,23,08,50,12.20
2014,05,23,08,51,12.20
2014,05,23,08,52,12.20
2014,05,23,08,53,12.20
2014,05,23,08,54,12.30
2014,05,23,08,55,12.30
2014,05,23,08,56,12.30
2014,05,23,08,57,12.30
2014,05,23,08,58,12.30
2014,05,23,08,59,12.30
2014,05,23,09,00,12.30
2014,05,23,09,01,12.30
2014,05,23,09,02,12.30
2014,05,23,09,03,12.30
2014,05,23,09,04,12.30
2014,05,23,09,05,12.30
2014,05,23,09,06,12.40
2014,05,23,09,07,12.40
2014,05,23,09,08,12.40
2014,05,23,09,09,12.40
2014,05,23,09,10,12.40
2014,05,23,09,11,12.40
2014,05,23,09,12,12.40
2014,05,23,09,13,12.50
2014,05,23,09,14,12.50
2014,05,23,09,15,12.50
2014,05,23,09,16,12.50
2014,05,23,09,17,12.50
2014,05,23,09,18,12.60
2014,05,23,09,19,12.60
2014,05,23,09,20,12.60
2014,05,23,09,21,12.60
2014,05,23,09,22,12.60
2014,05,23,09,23,12.60
2014,05,23,09,24,12.60
2014,05,23,09,25,12.60
2014,05,23,09,26,12.70
2014,05,23,09,27,12.70
2014,05,23,09,28,12.70
2014,05,23,09,29,12.80
2014,05,23,09,30,12.80
2014,05,23,09,31,12.80
2014,05,23,09,32,12.80
2014,05,23,09,33,12.90
2014,05,23,09,34,12.90
2014,05,23,09,35,12.90
2014,05,23,09,36,12.90
2014,05,23,09,37,12.90
2014,05,23,09,38,13.00
2014,05,23,09,39,13.00
2014,05,23,09,40,13.10
2014,05,23,09,41,13.10
2014,05,23,09,42,13.10
2014,05,23,09,43,13.20
2014,05,23,09,44,13.20
2014,05,23,09,45,13.30
2014,05,23,09,46,13.30
2014,05,23,09,47,13.30
2014,05,23,09,48,13.40
2014,05,23,09,49,13.40
2014,05,23,09,50,13.50
2014,05,23,09,51,13.50
2014,05,23,09,52,13.60
2014,05,23,09,53,13.70
2014,05,23,09,54,13.70
2014,05,23,09,55,13.80
2014,05,23,09,56,13.80
2014,05,23,09,57,13.80
2014,05,23,09,58,13.90
2014,05,23,09,59,13.90
2014,05,23,10,00,13.90
2014,05,23,10,01,14.00
2014,05,23,10,02,14.00
2014,05,23,10,03,14.10
2014,05,23,10,04,14.10
2014,05,23,10,05,14.10
2014,05,23,10,06,14.20
2014,05,23,10,07,14.20
2014,05,23,10,08,14.30
2014,05,23,10,09,14.30
2014,05,23,10,10,14.30
2014,05,23,10,11,14.40
2014,05,23,10,12,14.50
2014,05,23,10,13,14.50
2014,05,23,10,14,14.60
2014,05,23,10,15,14.60
2014,05,23,10,16,14.70
2014,05,23,10,17,14.70
2014,05,23,10,18,14.80
2014,05,23,10,19,14.80
2014,05,23,10,20,14.80
2014,05,23,10,21,14.90
2014,05,23,10,22,14.90
2014,05,23,10,23,15.00
2014,05,23,10,24,15.00
2014,05,23,10,25,15.00
2014,05,23,10,26,15.00
2014,05,23,10,27,15.00
2014,05,23,10,28,15.00
2014,05,23,10,29,15.00
2014,05,23,10,30,15.00
2014,05,23,10,31,15.00
2014,05,23,10,32,15.10
2014,05,23,10,33,15.20
2014,05,23,10,34,15.20
2014,05,23,10,35,15.20
2014,05,23,10,36,15.30
2014,05,23,10,37,15.30
2014,05,23,10,38,15.40
2014,05,23,10,39,15.40
2014,05,23,10,40,15.50
2014,05,23,10,41,15.50
2014,05,23,10,42,15.60
2014,05,23,10,43,15.60
2014,05,23,10,44,15.70
2014,05,23,10,45,15.70
2014,05,23,10,46,15.70
2014,05,23,10,47,15.80
2014,05,23,10,48,15.80
2014,05,23,10,49,15.90
2014,05,23,10,50,15.90
2014,05,23,10,51,15.90
2014,05,23,10,52,15.90
2014,05,23,10,53,16.00
2014,05,23,10,54,16.00
2014,05,23,10,55,16.00
2014,05,23,10,56,16.00
2014,05,23,10,57,16.00
2014,05,23,10,58,16.00
2014,05,23,10,59,16.00
2014,05,23,11,00,16.00
2014,05,23,11,01,16.10
2014,05,23,11,02,16.10
2014,05,23,11,03,16.10
2014,05,23,11,04,16.10
2014,05,23,11,05,16.10
2014,05,23,11,06,16.10
2014,05,23,11,07,16.10
2014,05,23,11,08,16.10
2014,05,23,11,09,16.10
2014,05,23,11,10,16.10
2014,05,23,11,11,16.10
2014,05,23,11,12,16.20
2014,05,23,11,13,16.20
2014,05,23,11,14,16.20
2014,05,23,11,15,16.20
2014,05,23,11,16,16.30
2014,05,23,11,17,16.30
2014,05,23,11,18,16.30
2014,05,23,11,19,16.40
2014,05,23,11,20,16.40
2014,05,23,11,21,16.40
2014,05,23,11,22,16.40
2014,05,23,11,23,16.50
2014,05,23,11,24,16.50
2014,05,23,11,25,16.60
2014,05,23,11,26,16.60
2014,05,23,11,27,16.60
2014,05,23,11,28,16.60
2014,05,23,11,29,16.70
2014,05,23,11,30,16.70
2014,05,23,11,31,16.70
2014,05,23,11,32,16.70
2014,05,23,11,33,16.70
2014,05,23,11,34,16.80
2014,05,23,11,35,16.80
2014,05,23,11,36,16.90
2014,05,23,11,37,16.90
2014,05,23,11,38,17.00
2014,05,23,11,39,17.00
2014,05,23,11,40,17.00
2014,05,23,11,41,17.10
2014,05,23,11,42,17.10
2014,05,23,11,43,17.20
2014,05,23,11,44,17.20
2014,05,23,11,45,17.20
2014,05,23,11,46,17.30
2014,05,23,11,47,17.30
2014,05,23,11,48,17.30
2014,05,23,11,49,17.30
2014,05,23,11,50,17.30
2014,05,23,11,51,17.40
2014,05,23,11,52,17.40
2014,05,23,11,53,17.40
2014,05,23,11,54,17.50
2014,05,23,11,55,17.60
2014,05,23,11,56,17.60
2014,05,23,11,57,17.70
2014,05,23,11,58,17.80
2014,05,23,11,59,17.80
2014,05,23,12,00,17.90
2014,05,23,12,01,18.00
2014,05,23,12,02,18.00
2014,05,23,12,03,18.10
2014,05,23,12,04,18.10
2014,05,23,12,05,18.20
2014,05,23,12,06,18.20
2014,05,23,12,07,18.20
2014,05,23,12,08,18.20
2014,05,23,12,09,18.30
2014,05,23,12,10,18.30
2014,05,23,12,11,18.30
2014,05,23,12,12,18.30
2014,05,23,12,13,18.40
2014,05,23,12,14,18.40
2014,05,23,12,15,18.40
2014,05,23,12,16,18.50
2014,05,23,12,17,18.60
2014,05,23,12,18,18.60
2014,05,23,12,19,18.70
2014,05,23,12,20,18.70
2014,05,23,12,21,18.80
2014,05,23,12,22,18.80
2014,05,23,12,23,18.90
2014,05,23,12,24,18.90
2014,05,23,12,25,18.90
2014,05,23,12,26,18.90
2014,05,23,12,27,18.90
2014,05,23,12,28,18.90
2014,05,23,12,29,18.90
2014,05,23,12,30,18.90
2014,05,23,12,31,18.90
2014,05,23,12,32,18.90
2014,05,23,12,33,18.90
2014,05,23,12,34,19.00
2014,05,23,12,35,19.00
2014,05,23,12,36,18.90
2014,05,23,12,37,18.90
2014,05,23,12,38,18.90
2014,05,23,12,39,18.90
2014,05,23,12,40,19.00
2014,05,23,12,41,19.00
2014,05,23,12,42,19.00
2014,05,23,12,43,19.00
2014,05,23,12,44,19.10
2014,05,23,12,45,19.00
2014,05,23,12,46,19.00
2014,05,23,12,47,19.00
2014,05,23,12,48,18.90
2014,05,23,12,49,18.90
2014,05,23,12,50,18.80
2014,05,23,12,51,18.80
2014,05,23,12,52,18.80
2014,05,23,12,53,18.70
2014,05,23,12,54,18.70
2014,05,23,12,55,18.60
2014,05,23,12,56,18.60
2014,05,23,12,57,18.60
2014,05,23,12,58,18.50
2014,05,23,12,59,18.50
2014,05,23,13,00,18.50
2014,05,23,13,01,18.50
2014,05,23,13,02,18.50
2014,05,23,13,03,18.50
2014,05,23,13,04,18.50
2014,05,23,13,05,18.50
2014,05,23,13,06,18.50
2014,05,23,13,07,18.50
2014,05,23,13,08,18.50
2014,05,23,13,09,18.60
2014,05,23,13,10,18.60
2014,05,23,13,11,18.70
2014,05,23,13,12,18.70
2014,05,23,13,13,18.70
2014,05,23,13,14,18.70
2014,05,23,13,15,18.70
2014,05,23,13,16,18.80
2014,05,23,13,17,18.80
2014,05,23,13,18,18.80
2014,05,23,13,19,18.90
2014,05,23,13,20,18.90
2014,05,23,13,21,18.90
2014,05,23,13,22,18.90
2014,05,23,13,23,19.00
2014,05,23,13,24,19.00
2014,05,23,13,25,19.10
2014,05,23,13,26,19.10
2014,05,23,13,27,19.10
2014,05,23,13,28,19.20
2014,05,23,13,29,19.20
2014,05,23,13,30,19.20
2014,05,23,13,31,19.10
2014,05,23,13,32,19.10
2014,05,23,13,33,19.10
2014,05,23,13,34,19.10
2014,05,23,13,35,19.20
2014,05,23,13,36,19.30
2014,05,23,13,37,19.30
2014,05,23,13,38,19.30
2014,05,23,13,39,19.40
2014,05,23,13,40,19.40
2014,05,23,13,41,19.40
2014,05,23,13,42,19.50
2014,05,23,13,43,19.50
2014,05,23,13,44,19.60
2014,05,23,13,45,19.60
2014,05,23,13,46,19.60
2014,05,23,13,47,19.60
2014,05,23,13,48,19.70
2014,05,23,13,49,19.70
2014,05,23,13,50,19.80
2014,05,23,13,51,19.70
2014,05,23,13,52,19.80
2014,05,23,13,53,19.80
2014,05,23,13,54,19.80
2014,05,23,13,55,19.80
2014,05,23,13,56,19.90
2014,05,23,13,57,19.90
2014,05,23,13,58,19.90
2014,05,23,13,59,19.90
2014,05,23,14,00,19.90
2014,05,23,14,01,19.90
2014,05,23,14,02,19.90
2014,05,23,14,03,19.90
2014,05,23,14,04,19.90
2014,05,23,14,05,20.00
2014,05,23,14,06,20.00
2014,05,23,14,07,20.10
2014,05,23,14,08,20.20
2014,05,23,14,09,20.30
2014,05,23,14,10,20.30
2014,05,23,14,11,20.30
2014,05,23,14,12,20.40
2014,05,23,14,13,20.40
2014,05,23,14,14,20.40
2014,05,23,14,15,20.40
2014,05,23,14,16,20.40
2014,05,23,14,17,20.50
2014,05,23,14,18,20.50
2014,05,23,14,19,20.60
2014,05,23,14,20,20.70
2014,05,23,14,21,20.70
2014,05,23,14,22,20.70
2014,05,23,14,23,20.80
2014,05,23,14,24,20.80
2014,05,23,14,25,20.80
2014,05,23,14,26,20.80
2014,05,23,14,27,20.80
2014,05,23,14,28,20.90
2014,05,23,14,29,20.90
2014,05,23,14,30,21.00
2014,05,23,14,31,21.00
2014,05,23,14,32,21.10
2014,05,23,14,33,21.20
2014,05,23,14,34,21.20
2014,05,23,14,35,21.20
2014,05,23,14,36,21.20
2014,05,23,14,37,21.20
2014,05,23,14,38,21.20
2014,05,23,14,39,21.10
2014,05,23,14,40,21.10
2014,05,23,14,41,21.10
2014,05,23,14,42,21.10
2014,05,23,14,43,21.10
2014,05,23,14,44,21.10
2014,05,23,14,45,21.20
2014,05,23,14,46,21.10
2014,05,23,14,47,21.20
2014,05,23,14,48,21.20
2014,05,23,14,49,21.20
2014,05,23,14,50,21.30
2014,05,23,14,51,21.20
2014,05,23,14,52,21.20
2014,05,23,14,53,21.10
2014,05,23,14,54,21.10
2014,05,23,14,55,21.10
2014,05,23,14,56,21.10
2014,05,23,14,57,21.10
2014,05,23,14,58,21.10
2014,05,23,14,59,21.20
2014,05,23,15,00,21.20
2014,05,23,15,01,21.10
2014,05,23,15,02,21.00
2014,05,23,15,03,20.90
2014,05,23,15,04,20.90
2014,05,23,15,05,20.80
2014,05,23,15,06,20.80
2014,05,23,15,07,20.80
2014,05,23,15,08,20.70
2014,05,23,15,09,20.70
2014,05,23,15,10,20.70
2014,05,23,15,11,20.70
2014,05,23,15,12,20.80
2014,05,23,15,13,20.80
2014,05,23,15,14,20.90
2014,05,23,15,15,20.90
2014,05,23,15,16,20.90
2014,05,23,15,17,20.80
2014,05,23,15,18,20.90
2014,05,23,15,19,20.90
2014,05,23,15,20,21.00
2014,05,23,15,21,21.00
2014,05,23,15,22,21.10
2014,05,23,15,23,21.10
2014,05,23,15,24,21.20
2014,05,23,15,25,21.20
2014,05,23,15,26,21.20
2014,05,23,15,27,21.20
2014,05,23,15,28,21.20
2014,05,23,15,29,21.20
2014,05,23,15,30,21.20
2014,05,23,15,31,21.20
2014,05,23,15,32,21.20
2014,05,23,15,33,21.20
2014,05,23,15,34,21.10
2014,05,23,15,35,21.20
2014,05,23,15,36,21.20
2014,05,23,15,37,21.20
2014,05,23,15,38,21.30
2014,05,23,15,39,21.30
2014,05,23,15,40,21.30
2014,05,23,15,41,21.30
2014,05,23,15,42,21.30
2014,05,23,15,43,21.40
2014,05,23,15,44,21.30
2014,05,23,15,45,21.30
2014,05,23,15,46,21.30
2014,05,23,15,47,21.40
2014,05,23,15,48,21.40
2014,05,23,15,49,21.40
2014,05,23,15,50,21.30
2014,05,23,15,51,21.20
2014,05,23,15,52,21.10
2014,05,23,15,53,21.00
2014,05,23,15,54,20.90
2014,05,23,15,55,20.80
2014,05,23,15,56,20.80
2014,05,23,15,57,20.80
2014,05,23,15,58,20.80
2014,05,23,15,59,20.70
2014,05,23,16,00,20.60
2014,05,23,16,01,20.60
2014,05,23,16,02,20.50
2014,05,23,16,03,20.40
2014,05,23,16,04,20.40
2014,05,23,16,05,20.30
2014,05,23,16,06,20.30
2014,05,23,16,07,20.20
2014,05,23,16,08,20.20
2014,05,23,16,09,20.20
2014,05,23,16,10,20.20
2014,05,23,16,11,20.20
2014,05,23,16,12,20.20
2014,05,23,16,13,20.20
2014,05,23,16,14,20.10
2014,05,23,16,15,20.10
2014,05,23,16,16,20.10
2014,05,23,16,17,20.10
2014,05,23,16,18,20.10
2014,05,23,16,19,20.10
2014,05,23,16,20,20.00
2014,05,23,16,21,20.00
2014,05,23,16,22,19.90
2014,05,23,16,23,19.90
2014,05,23,16,24,19.80
2014,05,23,16,25,19.80
2014,05,23,16,26,19.70
2014,05,23,16,27,19.70
2014,05,23,16,28,19.60
2014,05,23,16,29,19.60
2014,05,23,16,30,19.60
2014,05,23,16,31,19.60
2014,05,23,16,32,19.60
2014,05,23,16,33,19.60
2014,05,23,16,34,19.60
2014,05,23,16,35,19.70
2014,05,23,16,36,19.70
2014,05,23,16,37,19.70
2014,05,23,16,38,19.80
2014,05,23,16,39,19.80
2014,05,23,16,40,19.80
2014,05,23,16,41,19.80
2014,05,23,16,42,19.90
2014,05,23,16,43,19.90
2014,05,23,16,44,19.90
2014,05,23,16,45,19.80
2014,05,23,16,46,19.90
2014,05,23,16,47,19.90
2014,05,23,16,48,19.90
2014,05,23,16,49,19.90
2014,05,23,16,50,19.90
2014,05,23,16,51,19.90
2014,05,23,16,52,19.90
2014,05,23,16,53,19.90
2014,05,23,16,54,19.80
2014,05,23,16,55,19.80
2014,05,23,16,56,19.80
2014,05,23,16,57,19.70
2014,05,23,16,58,19.70
2014,05,23,16,59,19.60
2014,05,23,17,00,19.60
2014,05,23,17,01,19.50
2014,05,23,17,02,19.40
2014,05,23,17,03,19.30
2014,05,23,17,04,19.30
2014,05,23,17,05,19.30
2014,05,23,17,06,19.30
2014,05,23,17,07,19.20
2014,05,23,17,08,19.20
2014,05,23,17,09,19.20
2014,05,23,17,10,19.20
2014,05,23,17,11,19.20
2014,05,23,17,12,19.20
2014,05,23,17,13,19.20
2014,05,23,17,14,19.20
2014,05,23,17,15,19.30
2014,05,23,17,16,19.30
2014,05,23,17,17,19.40
2014,05,23,17,18,19.40
2014,05,23,17,19,19.50